[[{"header":{"parameterUnit":"m.s-1","parameterCategory":2,"la1":30.2991,"la2":30.254,"lo1":-89.0895,"lo2":-89.0444,"dy":0.0017,"dx":0.0017,"nx":28,"ny":28,"refTime":"2024-05-09T21:00:00:Z","depth":"0","parameterNumber":2,"parameterNumberName":"U-component_of_CURRENTS"},"data":[0,0,0,0,0,0,0,0,0,0,0,0,0,0,0,0,0,0,0,0,0,0,0,0,0,0,0,0,0,0,0,0,0,0,0,0,0,0,0,0,0,0,0,0,0,0,0,0,0,0,0,0,0,0,0,0,0,0,0.1935,0.1935,0,0.1949,0.1949,0.1949,0.1956,0.1957,0.1957,0.1958,0.1946,0.1945,0.1945,0,0,0,0,0,0,0,0,0,0,0,0,0,0.1856,0.1857,0.1935,0.1935,0.1936,0.1949,0.1949,0.1949,0.1956,0.1957,0.1957,0.1958,0.1946,0.1945,0.1944,0,0,0,0,0,0,0,0,0,0,0,0,0,0.1878,0.1857,0.1934,0.1944,0.1946,0.1949,0.1949,0.1949,0.1956,0.1957,0.1957,0.1958,0.1946,0.1945,0.1944,0.1926,0,0,0.1941,0.1941,0,0,0,0,0,0,0,0,0.1877,0.188,0.1942,0.1944,0.1945,0.1955,0.1917,0.1941,0.1956,0.1947,0.1958,0.1958,0.1949,0.1948,0.1943,0.1925,0.1925,0.1941,0.194,0.194,0.194,0,0,0,0,0,0,0,0.1875,0.1879,0.1936,0.1943,0.1945,0.1929,0.1933,0.1921,0.1941,0.1948,0.195,0.1958,0.1949,0.1944,0.1943,0.1925,0.1941,0.194,0.194,0.1939,0.1936,0.1936,0,0,0,0,0,0,0.1885,0.1878,0.1936,0.1937,0.1917,0.193,0.1934,0.1948,0.1942,0.1943,0.1958,0.1959,0.1946,0.1944,0.1943,0.1965,0.194,0.1939,0.1938,0.1935,0.1936,0.1936,0,0,0,0,0,0,0.1883,0.189,0.1935,0.1911,0.1916,0.1932,0.1946,0.1948,0.1953,0.195,0.195,0.1963,0.1946,0.1944,0.1944,0.1963,0.1939,0.1938,0.1935,0.1935,0.1936,0.1982,0,0,0,0,0,0,0.1881,0.1889,0.1897,0.1912,0.1918,0.1946,0.1946,0.1948,0.1959,0.196,0.1954,0.1953,0.1947,0.1946,0.1943,0.1961,0.1937,0.1934,0.1935,0.1936,0.198,0.1984,0.1988,0,0,0,0,0,0.1878,0.1889,0.1897,0.1904,0.193,0.1946,0.1947,0.1957,0.1959,0.1962,0.1961,0.1954,0.1951,0.1945,0.1942,0.1961,0.1933,0.1935,0.1936,0.1978,0.1983,0.1988,0,0,0,0,0,0,0.1854,0.1892,0.1901,0.1922,0.1938,0.195,0.1953,0.196,0.196,0.1961,0.1955,0.1954,0.1962,0.1951,0.1945,0.1962,0.1943,0.1944,0.1976,0.1981,0.1985,0.2,0.1936,0,0,0,0,0,0.1855,0.1875,0.1903,0.1917,0.1928,0.194,0.1946,0.1955,0.1961,0.1962,0.1959,0.1958,0.1962,0.1964,0.1959,0.1963,0.1999,0.1974,0.1978,0.1982,0.1992,0.2057,0.2069,0.194,0.194,0.194,0,0,0.1847,0.1872,0.1881,0.1914,0.1924,0.1941,0.1944,0.1959,0.1973,0.196,0.1969,0.1968,0.1965,0.1976,0.1979,0.1971,0.2043,0.1983,0.1986,0.1995,0.206,0.2073,0.2085,0.1941,0.1941,0.1941,0,0,0.1843,0.1867,0.1882,0.19,0.1927,0.1939,0.1948,0.1965,0.1974,0.1983,0.1984,0.1999,0.199,0.2005,0.2009,0.2031,0.2061,0.2026,0.2062,0.2125,0.2137,0.2148,0.224,0.2259,0.203,0.203,0.203,0,0.1832,0.1861,0.1885,0.1906,0.1923,0.1943,0.1959,0.1972,0.1985,0.2001,0.1992,0.2016,0.2011,0.2047,0.2056,0.2043,0.2093,0.2045,0.2134,0.2145,0.2155,0.2246,0.2266,0.2033,0.2032,0.2032,0.2032,0,0.1842,0.1866,0.1875,0.1913,0.1931,0.1949,0.1978,0.1994,0.2007,0.2026,0.2059,0.206,0.2085,0.2083,0.2075,0.2142,0.2161,0.2132,0.2126,0.2171,0.2264,0.2285,0.2036,0.2035,0.2035,0.2034,0,0,0.1813,0.1871,0.1874,0.1896,0.1939,0.1955,0.1987,0.2027,0.2065,0.2075,0.2127,0.2134,0.2151,0.2158,0.2158,0.2205,0.2325,0.2202,0.2204,0.2304,0.2501,0.2548,0.2574,0.2315,0.2318,0.232,0.2549,0,0.1812,0.1851,0.1883,0.1915,0.1938,0.1975,0.2008,0.2047,0.2087,0.2142,0.2164,0.2211,0.2177,0.2206,0.2247,0.2306,0.2375,0.2268,0.2433,0.2439,0.2483,0.2597,0.2551,0.2753,0.2568,0.2571,0.2574,0,0.1807,0.184,0.187,0.1932,0.1945,0.1965,0.2036,0.2076,0.2159,0.2196,0.2252,0.2284,0.2365,0.2322,0.2466,0.2403,0.2461,0.2499,0.2509,0.2549,0.2522,0.2671,0.2796,0.2744,0.2605,0.2602,0.26,0,0.1771,0.1829,0.1854,0.1872,0.1942,0.1961,0.2004,0.2084,0.2143,0.2249,0.2317,0.2394,0.2472,0.2535,0.2628,0.2561,0.2799,0.2716,0.2818,0.2823,0.2814,0.2813,0.2915,0.2828,0.2827,0.2827,0.2826,0,0.1758,0.1776,0.1837,0.1849,0.189,0.1946,0.2014,0.207,0.2181,0.2274,0.2349,0.2457,0.253,0.2667,0.2702,0.2863,0.2874,0.287,0.2896,0.2831,0.2829,0.2805,0.2749,0.2835,0.2833,0.2832,0.283,0,0.1707,0.1749,0.178,0.1847,0.1871,0.1898,0.2013,0.2074,0.219,0.2321,0.2368,0.2549,0.2745,0.284,0.2996,0.2997,0.3052,0.3157,0.3098,0.3112,0.3106,0.3053,0.3038,0.2946,0.33,0.3303,0.3305,0,0.1683,0.1693,0.1761,0.1783,0.1809,0.1874,0.1926,0.2051,0.2133,0.2384,0.2447,0.2695,0.2863,0.3145,0.3221,0.3357,0.3201,0.3366,0.3208,0.3152,0.3112,0.2905,0.2811,0.3231,0.3233,0.3234,0.3235,0,0.1634,0.1654,0.1684,0.1735,0.1778,0.1845,0.1934,0.2001,0.2176,0.2323,0.255,0.2718,0.3035,0.3197,0.3398,0.344,0.3218,0.3395,0.3345,0.3096,0.2869,0.2778,0.3051,0.3246,0.3245,0.3244,0.3243,0.3243,0.1588,0.1597,0.164,0.1686,0.1738,0.1797,0.1848,0.1973,0.2122,0.2344,0.2542,0.2793,0.3093,0.3383,0.3411,0.3456,0.3325,0.3375,0.3334,0.3143,0.2988,0.3311,0.3513,0.3513,0.3514,0.3514,0.3514,0,0.154,0.1561,0.1596,0.1653,0.1691,0.1737,0.1843,0.1904,0.2058,0.232,0.2531,0.2886,0.3102,0.3291,0.3477,0.3417,0.3171,0.3338,0.3024,0.2944,0.3281,0.3211,0.3345,0.3345,0.3345,0.3345,0.3346,0.3346,0.1518,0.1534,0.1561,0.1599,0.1635,0.1681,0.1729,0.1827,0.2001,0.2288,0.2531,0.2736,0.3118,0.3401,0.3441,0.3357,0.307,0.2975,0.2895,0.3147,0.3144,0.3141,0.3064,0.3165,0.3164,0.2433,0.2428,0.2424]},{"header":{"parameterUnit":"m.s-1","parameterCategory":2,"la1":30.2991,"la2":30.254,"lo1":-89.0895,"lo2":-89.0444,"dy":0.0017,"dx":0.0017,"nx":28,"ny":28,"refTime":"2024-05-09T21:00:00:Z","depth":"0","parameterNumber":3,"parameterNumberName":"V-component_of_CURRENTS"},"data":[0,0,0,0,0,0,0,0,0,0,0,0,0,0,0,0,0,0,0,0,0,0,0,0,0,0,0,0,0,0,0,0,0,0,0,0,0,0,0,0,0,0,0,0,0,0,0,0,0,0,0,0,0,0,0,0,0,0,-0.0113,-0.0114,0,-0.0167,-0.0168,-0.0168,-0.0201,-0.0201,-0.0202,-0.0202,-0.0275,-0.0276,-0.0278,0,0,0,0,0,0,0,0,0,0,0,0,0,-0.005,-0.005,-0.0113,-0.0114,-0.0115,-0.0167,-0.0168,-0.0168,-0.0201,-0.0201,-0.0202,-0.0202,-0.0274,-0.0276,-0.0278,0,0,0,0,0,0,0,0,0,0,0,0,0,-0.0086,-0.0051,-0.0113,-0.0138,-0.0141,-0.0167,-0.0168,-0.0168,-0.0201,-0.0201,-0.0202,-0.0202,-0.0274,-0.0276,-0.0278,-0.0285,0,0,-0.0286,-0.0287,0,0,0,0,0,0,0,0,-0.0084,-0.0089,-0.0134,-0.0137,-0.014,-0.0179,-0.0172,-0.0209,-0.0201,-0.0177,-0.0202,-0.0203,-0.0245,-0.025,-0.0257,-0.0289,-0.0292,-0.0286,-0.0288,-0.0289,-0.029,0,0,0,0,0,0,0,-0.0082,-0.0087,-0.0133,-0.0135,-0.0139,-0.0151,-0.0156,-0.0179,-0.0207,-0.0179,-0.0182,-0.019,-0.0247,-0.0254,-0.0259,-0.0293,-0.0286,-0.0289,-0.029,-0.0291,-0.0342,-0.0342,0,0,0,0,0,0,-0.0077,-0.0084,-0.0132,-0.0135,-0.0114,-0.0152,-0.0158,-0.0165,-0.0207,-0.0214,-0.0189,-0.0191,-0.025,-0.0256,-0.0262,-0.0268,-0.0289,-0.0291,-0.0293,-0.0342,-0.0342,-0.0342,0,0,0,0,0,0,-0.0075,-0.008,-0.0129,-0.0112,-0.0119,-0.0152,-0.016,-0.0166,-0.0175,-0.0215,-0.0222,-0.0193,-0.0251,-0.0258,-0.0283,-0.0272,-0.0292,-0.0295,-0.0343,-0.0342,-0.0342,-0.0284,0,0,0,0,0,0,-0.0073,-0.0079,-0.0082,-0.0111,-0.012,-0.0136,-0.016,-0.0167,-0.018,-0.0182,-0.022,-0.0227,-0.0251,-0.0279,-0.0285,-0.0275,-0.0297,-0.0343,-0.0342,-0.0342,-0.0286,-0.0282,-0.0278,0,0,0,0,0,-0.007,-0.0066,-0.0082,-0.0088,-0.0123,-0.0136,-0.0141,-0.0165,-0.0179,-0.0176,-0.0208,-0.0226,-0.0281,-0.0281,-0.0288,-0.0279,-0.0343,-0.0343,-0.0342,-0.0288,-0.0283,-0.0278,0,0,0,0,0,0,-0.0037,-0.007,-0.0088,-0.0094,-0.0112,-0.0142,-0.0141,-0.0162,-0.0183,-0.0187,-0.0226,-0.0235,-0.0253,-0.0275,-0.0274,-0.0294,-0.0314,-0.0315,-0.027,-0.0266,-0.0262,-0.0241,-0.0299,0,0,0,0,0,-0.0033,-0.0038,-0.0071,-0.0074,-0.0082,-0.0112,-0.0121,-0.0137,-0.0162,-0.0172,-0.0201,-0.0231,-0.0257,-0.0269,-0.0295,-0.0305,-0.0322,-0.0304,-0.03,-0.0296,-0.0285,-0.0313,-0.031,-0.0341,-0.0341,-0.0341,0,0,-0.0021,-0.004,-0.0044,-0.0068,-0.0084,-0.0083,-0.0118,-0.0124,-0.0125,-0.0176,-0.0185,-0.022,-0.0259,-0.0271,-0.028,-0.0288,-0.0295,-0.0296,-0.0292,-0.0283,-0.0312,-0.0309,-0.0306,-0.0341,-0.0341,-0.0341,0,0,0.0011,-0.0016,-0.0005,-0.0018,-0.0039,-0.0058,-0.0058,-0.0086,-0.01,-0.0117,-0.0155,-0.0182,-0.022,-0.0243,-0.0261,-0.0251,-0.0276,-0.0259,-0.0217,-0.0244,-0.0242,-0.024,-0.0247,-0.0246,-0.0253,-0.0253,-0.0253,0,0.0028,0.0031,-0.0003,0.0006,0.0002,-0.0042,-0.0027,-0.0047,-0.008,-0.0088,-0.0111,-0.0169,-0.0204,-0.022,-0.0218,-0.024,-0.0254,-0.0231,-0.0238,-0.0236,-0.0235,-0.0243,-0.0243,-0.025,-0.025,-0.0251,-0.0251,0,0.007,0.007,0.0078,0.0071,0.0063,0.0069,0.0036,0.0027,-0.0002,-0.0026,-0.0053,-0.0106,-0.0137,-0.0156,-0.0184,-0.0191,-0.0202,-0.0232,-0.0246,-0.0228,-0.0238,-0.0239,-0.0246,-0.0247,-0.0248,-0.0249,0,0,0.0118,0.011,0.0112,0.0119,0.0098,0.0097,0.0096,0.0083,0.0089,0.0039,0.0043,-0.0019,-0.0051,-0.0073,-0.0116,-0.0141,-0.0148,-0.0175,-0.0178,-0.0174,-0.019,-0.0191,-0.0192,-0.018,-0.018,-0.018,-0.0196,0,0.0163,0.0195,0.0175,0.0203,0.0217,0.0179,0.0184,0.0163,0.0137,0.0128,0.0063,0.0048,-0.0018,-0.0026,-0.0066,-0.0124,-0.0149,-0.014,-0.0215,-0.0217,-0.0213,-0.0193,-0.0187,-0.0201,-0.0197,-0.0197,-0.0197,0,0.0212,0.0228,0.0264,0.027,0.0273,0.028,0.0281,0.0283,0.0253,0.0235,0.0198,0.0149,0.0108,0.0047,-0.0045,-0.0035,-0.0104,-0.0157,-0.016,-0.018,-0.0219,-0.0222,-0.0203,-0.0386,-0.0199,-0.0199,-0.0199,0,0.0265,0.0287,0.0317,0.0319,0.0321,0.033,0.0333,0.0316,0.0338,0.0311,0.0332,0.0246,0.0238,0.0125,0.0014,-0.0014,-0.0081,-0.0138,-0.0204,-0.0205,-0.0224,-0.0226,-0.0383,-0.0204,-0.0204,-0.0204,-0.0204,0,0.0317,0.0343,0.0344,0.0362,0.0407,0.0387,0.0436,0.0423,0.0436,0.0492,0.0398,0.0436,0.0258,0.0196,0.006,-0.0055,-0.0047,-0.0184,-0.0208,-0.0202,-0.0202,-0.0382,-0.0474,-0.0205,-0.0205,-0.0205,-0.0205,0,0.0365,0.0366,0.0406,0.0422,0.0432,0.0465,0.0516,0.0557,0.0561,0.0636,0.0642,0.059,0.0519,0.0342,0.0183,0.0036,-0.0195,-0.0144,-0.0113,-0.0133,-0.0386,-0.0473,-0.0629,-0.0715,-0.0229,-0.0229,-0.0229,0,0.0391,0.0417,0.0455,0.049,0.0498,0.0552,0.0598,0.0616,0.0679,0.0753,0.0806,0.0762,0.077,0.0532,0.0249,0.0011,-0.0167,-0.0149,-0.0219,-0.0388,-0.0504,-0.0577,-0.0644,-0.0218,-0.0218,-0.0218,-0.0218,0,0.0447,0.0456,0.049,0.0564,0.0615,0.069,0.0764,0.0839,0.0897,0.0987,0.1106,0.1125,0.0894,0.0662,0.031,0.0124,-0.0282,-0.0157,-0.0351,-0.0517,-0.0587,-0.0684,-0.021,-0.0218,-0.0218,-0.0218,-0.0218,-0.0218,0.0487,0.0528,0.0576,0.0649,0.0712,0.0827,0.094,0.1046,0.1197,0.1376,0.135,0.1439,0.1042,0.0566,0.0268,-0.0277,-0.0284,-0.0446,-0.0537,-0.0593,-0.0688,-0.0199,-0.0227,-0.0227,-0.0227,-0.0227,-0.0227,0,0.0551,0.0596,0.0664,0.0764,0.086,0.0881,0.1052,0.1203,0.1432,0.1577,0.1704,0.1565,0.1078,0.0556,-0.0182,-0.0584,-0.0751,-0.0801,-0.0928,-0.0979,-0.056,-0.0573,-0.0655,-0.0655,-0.0655,-0.0655,-0.0654,-0.0654,0.0591,0.0675,0.0716,0.0881,0.096,0.1152,0.1281,0.1498,0.1657,0.1895,0.1965,0.1959,0.1564,0.0192,-0.0748,-0.0975,-0.125,-0.1306,-0.145,-0.1196,-0.1171,-0.1147,-0.1185,-0.1393,-0.1394,-0.1837,-0.1842,-0.1845]}],[{"header":{"parameterUnit":"m.s-1","parameterCategory":2,"la1":30.2991,"la2":30.254,"lo1":-89.0895,"lo2":-89.0444,"dy":0.0017,"dx":0.0017,"nx":28,"ny":28,"refTime":"2024-05-09T21:00:00:Z","depth":"2","parameterNumber":2,"parameterNumberName":"U-component_of_CURRENTS"},"data":[0,0,0,0,0,0,0,0,0,0,0,0,0,0,0,0,0,0,0,0,0,0,0,0,0,0,0,0,0,0,0,0,0,0,0,0,0,0,0,0,0,0,0,0,0,0,0,0,0,0,0,0,0,0,0,0,0,0,0.1915,0.1916,0,0.193,0.193,0.193,0.1939,0.194,0.194,0.1941,0.1929,0.1928,0.1927,0,0,0,0,0,0,0,0,0,0,0,0,0,0.1839,0.1841,0.1915,0.1916,0.1916,0.193,0.193,0.193,0.1939,0.194,0.194,0.1941,0.1929,0.1928,0.1927,0,0,0,0,0,0,0,0,0,0,0,0,0,0.1861,0.1841,0.1915,0.1926,0.1927,0.193,0.193,0.193,0.1939,0.194,0.194,0.1941,0.1929,0.1928,0.1927,0.1907,0,0,0.1924,0.1923,0,0,0,0,0,0,0,0,0.186,0.1863,0.1924,0.1925,0.1927,0.1937,0.1899,0.1922,0.1939,0.193,0.1941,0.1941,0.1931,0.193,0.1926,0.1907,0.1906,0.1924,0.1923,0.1922,0.1922,0,0,0,0,0,0,0,0.1858,0.1863,0.1917,0.1924,0.1926,0.1911,0.1915,0.1903,0.1923,0.1931,0.1933,0.1941,0.1931,0.1927,0.1926,0.1906,0.1924,0.1923,0.1922,0.1922,0.1917,0.1917,0,0,0,0,0,0,0.1868,0.1862,0.1917,0.1918,0.1899,0.1913,0.1917,0.193,0.1924,0.1925,0.194,0.1941,0.1928,0.1927,0.1925,0.1948,0.1922,0.1921,0.1921,0.1916,0.1917,0.1918,0,0,0,0,0,0,0.1866,0.1872,0.1916,0.1893,0.1898,0.1914,0.1928,0.193,0.1935,0.1932,0.1932,0.1946,0.1929,0.1927,0.1926,0.1946,0.1921,0.192,0.1916,0.1917,0.1917,0.1963,0,0,0,0,0,0,0.1864,0.1872,0.1879,0.1894,0.19,0.1924,0.1928,0.193,0.1941,0.1942,0.1936,0.1936,0.1929,0.1928,0.1925,0.1944,0.1919,0.1915,0.1916,0.1917,0.1961,0.1966,0.197,0,0,0,0,0,0.1861,0.1871,0.1879,0.1886,0.1911,0.1924,0.1925,0.1935,0.1941,0.1942,0.1942,0.1936,0.1933,0.1927,0.1924,0.1943,0.1915,0.1916,0.1917,0.1959,0.1965,0.197,0,0,0,0,0,0,0.1837,0.1874,0.1883,0.1903,0.1916,0.1928,0.1931,0.1939,0.1939,0.1941,0.1936,0.1935,0.1944,0.1933,0.1927,0.1944,0.1925,0.1925,0.1958,0.1963,0.1967,0.1979,0.1918,0,0,0,0,0,0.1838,0.1856,0.1883,0.1896,0.1905,0.1918,0.1924,0.1933,0.1939,0.1941,0.1939,0.1938,0.1943,0.1945,0.194,0.1944,0.1968,0.1955,0.196,0.1963,0.1971,0.2019,0.2028,0.1922,0.1922,0.1922,0,0,0.183,0.1854,0.1862,0.1892,0.1902,0.1916,0.1922,0.1935,0.195,0.1938,0.1948,0.1948,0.1946,0.1957,0.196,0.1952,0.2011,0.1965,0.1968,0.1974,0.2021,0.2032,0.2041,0.1922,0.1922,0.1922,0,0,0.1823,0.1848,0.1859,0.1875,0.1901,0.1914,0.1921,0.1938,0.1949,0.1959,0.1962,0.1977,0.1971,0.1985,0.1989,0.2011,0.2029,0.2008,0.2042,0.2088,0.2098,0.2106,0.2175,0.219,0.2013,0.2013,0.2013,0,0.1811,0.1836,0.1861,0.1877,0.1893,0.1916,0.1929,0.1943,0.1958,0.1973,0.1968,0.1992,0.1989,0.2022,0.2034,0.2023,0.2058,0.2024,0.2096,0.2104,0.2113,0.2181,0.2196,0.2015,0.2015,0.2015,0.2014,0,0.1813,0.1835,0.1843,0.1877,0.1894,0.191,0.1941,0.1959,0.1977,0.1995,0.2027,0.2032,0.2053,0.2056,0.2053,0.2109,0.2121,0.2096,0.2087,0.2127,0.2196,0.2211,0.2018,0.2018,0.2017,0.2016,0,0,0.1784,0.1836,0.1839,0.1856,0.1899,0.1913,0.1947,0.1986,0.202,0.2035,0.2079,0.2096,0.2111,0.2118,0.2122,0.2161,0.2258,0.2158,0.2159,0.2235,0.2388,0.2404,0.2423,0.2248,0.225,0.2252,0.2423,0,0.1777,0.1808,0.1839,0.1866,0.1884,0.1925,0.1957,0.1996,0.2036,0.2082,0.211,0.2149,0.2132,0.2157,0.2194,0.2243,0.2296,0.2215,0.2331,0.2335,0.2351,0.2439,0.2257,0.2394,0.2438,0.244,0.2442,0,0.1765,0.1794,0.1818,0.1873,0.1885,0.1905,0.1973,0.201,0.2084,0.212,0.217,0.2198,0.2272,0.2242,0.2362,0.2315,0.2359,0.239,0.2397,0.2405,0.2379,0.2355,0.242,0.2467,0.2465,0.2463,0.2462,0,0.1726,0.1777,0.1798,0.1814,0.1878,0.19,0.1942,0.2015,0.2067,0.2157,0.2217,0.2281,0.2352,0.2399,0.2486,0.2432,0.2625,0.2553,0.2612,0.2614,0.2477,0.2464,0.2637,0.2637,0.2637,0.2636,0.2636,0,0.1704,0.172,0.178,0.179,0.1827,0.188,0.1939,0.1993,0.2091,0.2172,0.2239,0.233,0.2398,0.2512,0.2539,0.266,0.268,0.2651,0.2667,0.2491,0.2477,0.2537,0.2523,0.2643,0.2641,0.264,0.2639,0,0.1648,0.1688,0.1715,0.1782,0.1805,0.1831,0.1938,0.1989,0.2096,0.2212,0.2252,0.2409,0.2568,0.265,0.2771,0.2763,0.2844,0.2874,0.2685,0.2674,0.2782,0.2768,0.2942,0.2944,0.2946,0.2948,0.2949,0,0.162,0.1627,0.1695,0.1718,0.1746,0.1807,0.1853,0.1968,0.2037,0.2264,0.2318,0.2525,0.2653,0.2866,0.2905,0.2993,0.2968,0.2851,0.2696,0.282,0.2817,0.28,0.2785,0.2542,0.254,0.2538,0.2537,0,0.1567,0.1591,0.1619,0.1669,0.1712,0.1771,0.1852,0.1913,0.2074,0.2196,0.2391,0.2521,0.2758,0.2791,0.2924,0.2922,0.2813,0.2819,0.302,0.2494,0.2457,0.2449,0.2444,0.2521,0.2523,0.2524,0.2525,0.2526,0.1525,0.1533,0.1576,0.1621,0.1671,0.1726,0.1766,0.1882,0.2003,0.2175,0.2343,0.2489,0.2596,0.2714,0.2691,0.268,0.2837,0.2689,0.2688,0.2691,0.2614,0.2582,0.2658,0.266,0.2662,0.2664,0.2665,0,0.1476,0.1499,0.1533,0.1586,0.162,0.1668,0.1758,0.1797,0.1924,0.2102,0.2253,0.2188,0.2284,0.238,0.2367,0.2405,0.2301,0.229,0.2126,0.2149,0.2167,0.2054,0.1955,0.1951,0.1948,0.1945,0,0,0.1453,0.1465,0.1489,0.1524,0.1564,0.1599,0.164,0.1707,0.182,0.1894,0.197,0.2186,0.2348,0.2102,0.2113,0.2035,0.205,0.1961,0.2552,0.2385,0.2397,0.2448,0.2309,0,0,0,0,0]},{"header":{"parameterUnit":"m.s-1","parameterCategory":2,"la1":30.2991,"la2":30.254,"lo1":-89.0895,"lo2":-89.0444,"dy":0.0017,"dx":0.0017,"nx":28,"ny":28,"refTime":"2024-05-09T21:00:00:Z","depth":"2","parameterNumber":3,"parameterNumberName":"V-component_of_CURRENTS"},"data":[0,0,0,0,0,0,0,0,0,0,0,0,0,0,0,0,0,0,0,0,0,0,0,0,0,0,0,0,0,0,0,0,0,0,0,0,0,0,0,0,0,0,0,0,0,0,0,0,0,0,0,0,0,0,0,0,0,0,-0.022,-0.0221,0,-0.0276,-0.0276,-0.0277,-0.031,-0.031,-0.031,-0.0311,-0.0388,-0.0389,-0.0391,0,0,0,0,0,0,0,0,0,0,0,0,0,-0.0159,-0.016,-0.022,-0.0221,-0.0222,-0.0275,-0.0276,-0.0277,-0.031,-0.031,-0.031,-0.0311,-0.0387,-0.0389,-0.0391,0,0,0,0,0,0,0,0,0,0,0,0,0,-0.0196,-0.016,-0.022,-0.0246,-0.0249,-0.0275,-0.0276,-0.0277,-0.031,-0.031,-0.0311,-0.0311,-0.0386,-0.0389,-0.0392,-0.04,0,0,-0.04,-0.0401,0,0,0,0,0,0,0,0,-0.0194,-0.0198,-0.0241,-0.0244,-0.0247,-0.0287,-0.0283,-0.032,-0.031,-0.0285,-0.0311,-0.0311,-0.0357,-0.0362,-0.0369,-0.0404,-0.0407,-0.04,-0.0402,-0.0403,-0.0404,0,0,0,0,0,0,0,-0.0191,-0.0196,-0.0241,-0.0242,-0.0246,-0.026,-0.0265,-0.029,-0.0317,-0.0287,-0.029,-0.0298,-0.0358,-0.0367,-0.0371,-0.0408,-0.04,-0.0403,-0.0404,-0.0405,-0.0463,-0.0463,0,0,0,0,0,0,-0.0186,-0.0193,-0.0239,-0.0243,-0.0222,-0.0261,-0.0267,-0.0273,-0.0317,-0.0324,-0.0298,-0.03,-0.0362,-0.0368,-0.0374,-0.0384,-0.0403,-0.0405,-0.0407,-0.0463,-0.0463,-0.0463,0,0,0,0,0,0,-0.0184,-0.0189,-0.0237,-0.022,-0.0228,-0.0261,-0.0268,-0.0274,-0.0282,-0.0325,-0.0332,-0.0301,-0.0362,-0.037,-0.0397,-0.0388,-0.0407,-0.0409,-0.0463,-0.0463,-0.0463,-0.0406,0,0,0,0,0,0,-0.0182,-0.0188,-0.019,-0.022,-0.0228,-0.0244,-0.0268,-0.0275,-0.0287,-0.029,-0.033,-0.0337,-0.0363,-0.0393,-0.04,-0.0392,-0.0411,-0.0463,-0.0463,-0.0463,-0.0408,-0.0404,-0.0401,0,0,0,0,0,-0.018,-0.0174,-0.019,-0.0195,-0.023,-0.0244,-0.0249,-0.0274,-0.0287,-0.0284,-0.0317,-0.0336,-0.0397,-0.0395,-0.0403,-0.0396,-0.0463,-0.0463,-0.0463,-0.041,-0.0405,-0.0401,0,0,0,0,0,0,-0.0146,-0.0179,-0.0196,-0.0201,-0.0219,-0.025,-0.025,-0.0269,-0.0293,-0.0296,-0.0337,-0.0347,-0.0367,-0.0391,-0.0388,-0.0413,-0.0432,-0.0434,-0.0389,-0.0385,-0.0381,-0.036,-0.0414,0,0,0,0,0,-0.0141,-0.0146,-0.0179,-0.0181,-0.0188,-0.0219,-0.0228,-0.0244,-0.027,-0.0281,-0.0311,-0.0344,-0.0373,-0.0385,-0.0414,-0.0426,-0.0446,-0.0427,-0.0423,-0.042,-0.0408,-0.0438,-0.0436,-0.0462,-0.0462,-0.0462,0,0,-0.0129,-0.0147,-0.0151,-0.0174,-0.019,-0.0193,-0.0225,-0.0231,-0.0235,-0.0286,-0.0298,-0.0333,-0.0375,-0.0391,-0.0401,-0.0408,-0.0422,-0.0419,-0.0416,-0.0407,-0.0438,-0.0435,-0.0433,-0.0462,-0.0462,-0.0462,0,0,-0.0099,-0.0122,-0.0114,-0.0126,-0.0148,-0.0168,-0.0168,-0.0197,-0.0211,-0.023,-0.0269,-0.0297,-0.0338,-0.0364,-0.0383,-0.0376,-0.0404,-0.0385,-0.0345,-0.0374,-0.0372,-0.037,-0.0386,-0.0387,-0.0379,-0.0379,-0.0379,0,-0.0082,-0.0081,-0.0112,-0.0106,-0.0112,-0.0153,-0.0143,-0.0162,-0.0197,-0.0206,-0.0226,-0.0287,-0.0324,-0.0345,-0.0343,-0.0366,-0.0383,-0.0357,-0.0368,-0.0366,-0.0366,-0.0383,-0.0384,-0.0377,-0.0377,-0.0377,-0.0377,0,-0.0046,-0.0048,-0.0041,-0.0052,-0.006,-0.0057,-0.009,-0.0099,-0.0125,-0.0151,-0.0178,-0.023,-0.0263,-0.0282,-0.0311,-0.0321,-0.0335,-0.0361,-0.0375,-0.0359,-0.0379,-0.0381,-0.0373,-0.0374,-0.0374,-0.0375,0,0,-0.0001,-0.0013,-0.0011,-0.0008,-0.0032,-0.0033,-0.0037,-0.0054,-0.0051,-0.0096,-0.0096,-0.0156,-0.0184,-0.0208,-0.025,-0.0275,-0.0288,-0.0307,-0.031,-0.0315,-0.0341,-0.0357,-0.0361,-0.0316,-0.0316,-0.0316,-0.0354,0,0.0037,0.006,0.004,0.006,0.0068,0.0034,0.0035,0.0014,-0.0011,-0.0022,-0.0081,-0.01,-0.0157,-0.0166,-0.0202,-0.0265,-0.0291,-0.0274,-0.0362,-0.0364,-0.0374,-0.0364,-0.0335,-0.0368,-0.0356,-0.0357,-0.0357,0,0.0076,0.0087,0.0114,0.0114,0.0116,0.0121,0.0118,0.0117,0.0087,0.0071,0.0037,-0.0012,-0.0054,-0.0104,-0.0199,-0.0185,-0.0253,-0.0307,-0.031,-0.0345,-0.0384,-0.0384,-0.0372,-0.0361,-0.0361,-0.036,-0.036,0,0.0121,0.0135,0.0158,0.0158,0.0155,0.0164,0.0165,0.0148,0.0164,0.0137,0.0152,0.007,0.0055,-0.005,-0.0161,-0.018,-0.0262,-0.0307,-0.0387,-0.0389,-0.0391,-0.0393,-0.0373,-0.0373,-0.0373,-0.0373,-0.0373,0,0.0161,0.0181,0.0183,0.0196,0.0234,0.0215,0.0257,0.0244,0.0253,0.0296,0.0211,0.0231,0.0069,-0.0,-0.0126,-0.025,-0.0238,-0.0372,-0.0399,-0.0371,-0.037,-0.0388,-0.0389,-0.0375,-0.0374,-0.0374,-0.0374,0,0.0199,0.0199,0.0232,0.0245,0.0255,0.0285,0.0329,0.0363,0.0364,0.0424,0.0425,0.0358,0.0268,0.0105,-0.0055,-0.0184,-0.0317,-0.0366,-0.0315,-0.0337,-0.0436,-0.0434,-0.0467,-0.0468,-0.0469,-0.0469,-0.047,0,0.0218,0.024,0.0275,0.0308,0.0317,0.0365,0.0405,0.0417,0.0469,0.0515,0.0554,0.0485,0.0453,0.0207,-0.0037,-0.0261,-0.0297,-0.0388,-0.0432,-0.0422,-0.0445,-0.0442,-0.0439,-0.0411,-0.0411,-0.0411,-0.0411,0,0.0262,0.0274,0.0303,0.0372,0.042,0.0485,0.0549,0.061,0.0652,0.0707,0.0775,0.0754,0.0523,0.0297,-0.0027,-0.0186,-0.0357,-0.0396,-0.0392,-0.0393,-0.0372,-0.0394,-0.0392,-0.041,-0.041,-0.041,-0.041,-0.0411,0.0297,0.0331,0.0376,0.0442,0.0506,0.0603,0.0682,0.0774,0.0878,0.0977,0.0939,0.0936,0.064,0.0244,-0.0048,-0.0348,-0.0348,-0.0458,-0.0456,-0.0455,-0.0443,-0.0426,-0.0471,-0.0471,-0.0472,-0.0472,-0.0472,0,0.0337,0.0381,0.0446,0.0531,0.0615,0.0645,0.0776,0.0867,0.1025,0.1103,0.1154,0.0905,0.0637,0.0321,-0.012,-0.041,-0.0437,-0.0497,-0.0464,-0.0462,-0.046,-0.0448,-0.0478,-0.0479,-0.0479,-0.048,0,0,0.0361,0.0428,0.0463,0.0606,0.0684,0.0818,0.091,0.1049,0.1145,0.1226,0.1239,0.116,0.0772,0.0448,0.0047,-0.0198,-0.0263,-0.0254,-0.022,-0.0132,-0.0126,-0.041,-0.0386,0,0,0,0,0]}],[{"header":{"parameterUnit":"m.s-1","parameterCategory":2,"la1":30.2991,"la2":30.254,"lo1":-89.0895,"lo2":-89.0444,"dy":0.0017,"dx":0.0017,"nx":28,"ny":28,"refTime":"2024-05-09T21:00:00:Z","depth":"4","parameterNumber":2,"parameterNumberName":"U-component_of_CURRENTS"},"data":[0,0,0,0,0,0,0,0,0,0,0,0,0,0,0,0,0,0,0,0,0,0,0,0,0,0,0,0,0,0,0,0,0,0,0,0,0,0,0,0,0,0,0,0,0,0,0,0,0,0,0,0,0,0,0,0,0,0,0.0871,0.0873,0,0.1007,0.1008,0.1009,0.1068,0.1068,0.1068,0.1068,0.1166,0.1169,0.1171,0,0,0,0,0,0,0,0,0,0,0,0,0,0.078,0.0781,0.0871,0.0873,0.0875,0.1006,0.1008,0.1009,0.1068,0.1068,0.1068,0.1069,0.1165,0.1168,0.1171,0,0,0,0,0,0,0,0,0,0,0,0,0,0.0853,0.0781,0.0871,0.0924,0.093,0.1006,0.1008,0.101,0.1068,0.1068,0.1068,0.1069,0.1165,0.1168,0.1172,0.1187,0,0,0.1183,0.1184,0,0,0,0,0,0,0,0,0.0849,0.0856,0.0914,0.092,0.0928,0.1025,0.1012,0.1069,0.1068,0.101,0.1068,0.1069,0.1118,0.1126,0.1144,0.1191,0.1196,0.1183,0.1185,0.1187,0.1188,0,0,0,0,0,0,0,0.0844,0.0851,0.092,0.0916,0.0925,0.0982,0.0991,0.1023,0.1056,0.1015,0.1021,0.1044,0.1121,0.1141,0.1147,0.1197,0.1183,0.1186,0.1188,0.119,0.133,0.1331,0,0,0,0,0,0,0.083,0.0845,0.0916,0.0924,0.0894,0.0983,0.0993,0.0989,0.1057,0.107,0.1043,0.1046,0.1134,0.1143,0.1151,0.1241,0.1187,0.119,0.1192,0.1328,0.133,0.1332,0,0,0,0,0,0,0.0827,0.0834,0.091,0.0894,0.0908,0.0983,0.098,0.0992,0.1043,0.108,0.109,0.1086,0.1135,0.1146,0.1209,0.1242,0.1192,0.1195,0.1326,0.1329,0.1331,0.1377,0,0,0,0,0,0,0.0823,0.0831,0.0846,0.0892,0.0909,0.098,0.098,0.0995,0.1057,0.1063,0.1119,0.1127,0.1136,0.1204,0.1213,0.1246,0.1198,0.1324,0.1327,0.133,0.1374,0.1381,0.1387,0,0,0,0,0,0.0819,0.0838,0.0845,0.0856,0.0918,0.0982,0.0996,0.1048,0.1059,0.1093,0.1128,0.1127,0.1228,0.1208,0.1218,0.1254,0.1323,0.1327,0.133,0.1371,0.1379,0.1387,0,0,0,0,0,0,0.0815,0.0848,0.0856,0.0886,0.094,0.0994,0.1041,0.1066,0.1122,0.1137,0.1152,0.1164,0.1226,0.1237,0.1214,0.1302,0.1273,0.1279,0.1301,0.1309,0.1316,0.1313,0.1201,0,0,0,0,0,0.0816,0.0838,0.088,0.0912,0.0936,0.099,0.1031,0.1067,0.1115,0.1142,0.1178,0.1215,0.1244,0.1276,0.1304,0.1361,0.1377,0.1389,0.1395,0.1401,0.1406,0.1457,0.1469,0.1343,0.1343,0.1343,0,0,0.0827,0.085,0.0865,0.0915,0.0957,0.1004,0.1015,0.109,0.1133,0.1143,0.1218,0.1242,0.1263,0.1321,0.135,0.134,0.1448,0.1405,0.141,0.1411,0.1462,0.1474,0.1485,0.1346,0.1345,0.1345,0,0,0.0863,0.0875,0.0907,0.0949,0.1023,0.1049,0.1074,0.1143,0.1179,0.1249,0.1259,0.1307,0.1365,0.1387,0.14,0.1464,0.1476,0.1477,0.1518,0.1569,0.1579,0.1589,0.1636,0.165,0.1487,0.1487,0.1487,0,0.0876,0.0911,0.0935,0.0981,0.102,0.1066,0.1115,0.1158,0.1244,0.1275,0.1281,0.1371,0.1391,0.1448,0.1469,0.1479,0.1511,0.1485,0.1577,0.1587,0.1596,0.1642,0.1656,0.149,0.1489,0.1489,0.1489,0,0.0933,0.097,0.0998,0.1051,0.1096,0.1154,0.1202,0.1256,0.1296,0.1335,0.1412,0.1446,0.15,0.1512,0.1511,0.1586,0.159,0.1573,0.1555,0.1611,0.1656,0.167,0.1494,0.1493,0.1492,0.1491,0,0,0.0928,0.1015,0.1028,0.106,0.1137,0.1176,0.1242,0.1308,0.136,0.1428,0.1493,0.1543,0.1572,0.1589,0.1605,0.1646,0.1736,0.1645,0.1647,0.1689,0.186,0.176,0.1766,0.1743,0.1746,0.1748,0.1871,0,0.0966,0.1045,0.1083,0.116,0.1197,0.1248,0.13,0.1369,0.1428,0.1504,0.1543,0.1613,0.1598,0.1642,0.1682,0.1725,0.1774,0.1705,0.1802,0.1805,0.1706,0.1778,0.1755,0.1881,0.1884,0.1886,0.1888,0,0.1004,0.1049,0.1124,0.1198,0.122,0.1273,0.1358,0.142,0.1518,0.157,0.1645,0.1685,0.1767,0.1741,0.185,0.1813,0.1845,0.1866,0.1871,0.1768,0.173,0.1811,0.1913,0.1911,0.1909,0.1907,0.1906,0,0.0976,0.1073,0.1127,0.1157,0.125,0.1295,0.1349,0.1445,0.1504,0.1629,0.1691,0.1781,0.1851,0.1901,0.1952,0.192,0.2061,0.202,0.1959,0.1953,0.1984,0.1972,0.2095,0.2095,0.2094,0.2094,0.2094,0,0.0981,0.1028,0.1123,0.1153,0.122,0.1293,0.138,0.1449,0.1562,0.1639,0.1732,0.1804,0.1897,0.198,0.2001,0.2031,0.2109,0.1982,0.1982,0.2002,0.1991,0.1994,0.1981,0.2099,0.2098,0.2097,0.2096,0,0.0943,0.1009,0.1072,0.1174,0.121,0.1261,0.1384,0.1444,0.1565,0.1674,0.1721,0.1857,0.1969,0.2045,0.2146,0.2094,0.2129,0.2118,0.216,0.2157,0.1975,0.1963,0.2061,0.2058,0.2056,0.2054,0.2053,0,0.0929,0.0961,0.107,0.1108,0.116,0.1249,0.1307,0.1432,0.1494,0.1687,0.1724,0.1887,0.1966,0.2036,0.2113,0.217,0.2137,0.2141,0.2025,0.1984,0.1975,0.1966,0.1957,0.205,0.2049,0.2049,0.2048,0,0.0893,0.0941,0.0988,0.1066,0.1133,0.12,0.1292,0.1326,0.1478,0.1602,0.1705,0.1782,0.1908,0.198,0.2051,0.2073,0.2127,0.2119,0.2121,0.2012,0.1972,0.1963,0.1956,0.2041,0.2042,0.2043,0.2043,0,0.0861,0.088,0.0947,0.1011,0.1085,0.1127,0.1187,0.1268,0.1346,0.1546,0.158,0.1755,0.1891,0.1933,0.1992,0.202,0.1977,0.1896,0.1909,0.1918,0.1812,0.1736,0.1749,0,0,0,0,0,0.082,0.0836,0.0888,0.0948,0.1018,0.1067,0.1164,0.1227,0.1369,0.1407,0.1491,0.1602,0.1713,0.1793,0.1796,0.1924,0.1977,0.1917,0.1887,0.2001,0.201,0.1897,0,0,0,0,0,0,0.0789,0.0831,0.0859,0.0884,0.0917,0.0986,0.1044,0.1143,0.1163,0.1318,0.1384,0.1513,0.1636,0.1708,0.1771,0.1797,0.1747,0.2024,0.202,0.1997,0.2004,0.2011,0.1898,0,0,0,0,0]},{"header":{"parameterUnit":"m.s-1","parameterCategory":2,"la1":30.2991,"la2":30.254,"lo1":-89.0895,"lo2":-89.0444,"dy":0.0017,"dx":0.0017,"nx":28,"ny":28,"refTime":"2024-05-09T21:00:00:Z","depth":"4","parameterNumber":3,"parameterNumberName":"V-component_of_CURRENTS"},"data":[0,0,0,0,0,0,0,0,0,0,0,0,0,0,0,0,0,0,0,0,0,0,0,0,0,0,0,0,0,0,0,0,0,0,0,0,0,0,0,0,0,0,0,0,0,0,0,0,0,0,0,0,0,0,0,0,0,0,0.0144,0.0143,0,0.0026,0.0025,0.0024,-0.0024,-0.0024,-0.0023,-0.0023,-0.0139,-0.0143,-0.0146,0,0,0,0,0,0,0,0,0,0,0,0,0,0.0166,0.0167,0.0145,0.0143,0.0142,0.0026,0.0025,0.0023,-0.0024,-0.0024,-0.0023,-0.0023,-0.0138,-0.0142,-0.0146,0,0,0,0,0,0,0,0,0,0,0,0,0,0.0113,0.0167,0.0145,0.0104,0.0099,0.0027,0.0025,0.0023,-0.0024,-0.0024,-0.0023,-0.0023,-0.0137,-0.0142,-0.0147,-0.0187,0,0,-0.0162,-0.0165,0,0,0,0,0,0,0,0,0.0117,0.0113,0.0112,0.0107,0.0101,0.0016,-0.001,-0.0047,-0.0024,0.0023,-0.0023,-0.0023,-0.0087,-0.0097,-0.012,-0.0192,-0.0197,-0.0163,-0.0166,-0.0168,-0.0169,0,0,0,0,0,0,0,0.0121,0.0117,0.0098,0.011,0.0104,0.0036,0.003,-0.0018,-0.0033,0.0019,0.0015,0.0002,-0.009,-0.0115,-0.0123,-0.0199,-0.0163,-0.0167,-0.017,-0.0172,-0.0299,-0.0299,0,0,0,0,0,0,0.0144,0.0121,0.0101,0.0094,0.011,0.0036,0.0029,0.0043,-0.0033,-0.0044,0.0001,-0.0,-0.0107,-0.0117,-0.0127,-0.0174,-0.0168,-0.0173,-0.0176,-0.0299,-0.0299,-0.03,0,0,0,0,0,0,0.0145,0.0144,0.0106,0.0103,0.0093,0.0036,0.0051,0.0041,0.001,-0.0046,-0.0057,-0.0019,-0.0107,-0.012,-0.0174,-0.0178,-0.0175,-0.018,-0.0298,-0.0299,-0.0299,-0.027,0,0,0,0,0,0,0.0147,0.0146,0.0156,0.0106,0.0095,0.0059,0.005,0.0038,0.0002,-0.0002,-0.0067,-0.0077,-0.0107,-0.0166,-0.0179,-0.0185,-0.0184,-0.0298,-0.0299,-0.0299,-0.027,-0.0269,-0.0268,0,0,0,0,0,0.0148,0.0154,0.0159,0.0155,0.0115,0.0058,0.0045,0.0005,0.0,-0.002,-0.0058,-0.0076,-0.0179,-0.0172,-0.0186,-0.0194,-0.0298,-0.0298,-0.0299,-0.0271,-0.0269,-0.0268,0,0,0,0,0,0,0.0165,0.0148,0.0152,0.0154,0.0112,0.005,0.0023,0.0002,-0.0046,-0.005,-0.0092,-0.0106,-0.0151,-0.0179,-0.017,-0.0231,-0.0237,-0.0241,-0.021,-0.021,-0.0208,-0.019,-0.0188,0,0,0,0,0,0.0179,0.018,0.0148,0.0145,0.0128,0.0078,0.0049,0.0022,-0.0026,-0.0047,-0.0088,-0.013,-0.0167,-0.0193,-0.0234,-0.0277,-0.0294,-0.0288,-0.0287,-0.0286,-0.028,-0.0306,-0.0306,-0.0302,-0.0302,-0.0302,0,0,0.0183,0.0173,0.0174,0.0148,0.0112,0.0081,0.0061,0.0013,-0.001,-0.0053,-0.0099,-0.0134,-0.0178,-0.022,-0.0242,-0.0244,-0.0297,-0.0287,-0.0285,-0.0281,-0.0307,-0.0307,-0.0307,-0.0303,-0.0302,-0.0302,0,0,0.0169,0.0185,0.0172,0.0144,0.0096,0.007,0.006,0.0001,-0.002,-0.007,-0.0096,-0.0133,-0.0201,-0.0227,-0.0248,-0.0268,-0.0291,-0.028,-0.0263,-0.0288,-0.0288,-0.0288,-0.0312,-0.0315,-0.0278,-0.0278,-0.0278,0,0.0171,0.0168,0.0152,0.0126,0.0108,0.0071,0.0046,0.0014,-0.0055,-0.0065,-0.008,-0.0159,-0.02,-0.0234,-0.0239,-0.0265,-0.0282,-0.0263,-0.0285,-0.0286,-0.0287,-0.0311,-0.0315,-0.0277,-0.0277,-0.0277,-0.0277,0,0.0138,0.014,0.0124,0.01,0.0076,0.0045,0.0013,-0.0013,-0.0034,-0.006,-0.01,-0.0154,-0.0192,-0.0212,-0.0236,-0.026,-0.027,-0.028,-0.0284,-0.0285,-0.0311,-0.0315,-0.0275,-0.0275,-0.0276,-0.0276,0,0,0.0132,0.011,0.0105,0.0107,0.0067,0.0046,0.002,-0.0008,-0.0009,-0.0068,-0.0075,-0.0142,-0.0158,-0.0182,-0.0214,-0.024,-0.0267,-0.026,-0.0262,-0.0276,-0.0321,-0.0317,-0.0321,-0.0279,-0.0279,-0.028,-0.0337,0,0.011,0.0086,0.0075,0.0058,0.0049,0.0033,0.0022,-0.0003,-0.0023,-0.004,-0.0083,-0.0108,-0.0149,-0.016,-0.0194,-0.0245,-0.0276,-0.025,-0.0324,-0.0326,-0.0316,-0.0325,-0.0281,-0.034,-0.0341,-0.0342,-0.0342,0,0.0077,0.0074,0.0062,0.0072,0.0067,0.0054,0.0058,0.0041,0.0018,0.0008,-0.0022,-0.0055,-0.0102,-0.0131,-0.0221,-0.0201,-0.0259,-0.0302,-0.0305,-0.0312,-0.033,-0.034,-0.035,-0.0349,-0.0349,-0.0348,-0.0348,0,0.0085,0.0068,0.0073,0.0069,0.0065,0.0067,0.0066,0.0054,0.0064,0.0042,0.0051,-0.0014,-0.0036,-0.0117,-0.0212,-0.0215,-0.0306,-0.0322,-0.0376,-0.0377,-0.0375,-0.0374,-0.0387,-0.0387,-0.0387,-0.0386,-0.0386,0,0.0075,0.0077,0.0082,0.0084,0.0105,0.0092,0.0115,0.0108,0.0113,0.0138,0.0082,0.0084,-0.0032,-0.0099,-0.0194,-0.0294,-0.0296,-0.0373,-0.039,-0.0363,-0.036,-0.0378,-0.0377,-0.0389,-0.0388,-0.0388,-0.0387,0,0.0078,0.0078,0.0089,0.0099,0.0109,0.0124,0.0157,0.0179,0.0179,0.0211,0.021,0.0156,0.007,-0.0051,-0.0182,-0.026,-0.0363,-0.0401,-0.0359,-0.0373,-0.0423,-0.0419,-0.0463,-0.0464,-0.0464,-0.0464,-0.0464,0,0.0078,0.0084,0.011,0.0133,0.0139,0.0168,0.0198,0.021,0.0241,0.0258,0.0278,0.0208,0.0156,-0.0012,-0.0159,-0.034,-0.0369,-0.0424,-0.0431,-0.0418,-0.043,-0.0426,-0.0422,-0.0465,-0.0465,-0.0465,-0.0465,0,0.0085,0.0094,0.0111,0.016,0.0194,0.0242,0.0283,0.0313,0.0338,0.0342,0.0353,0.0263,0.0164,0.0007,-0.0137,-0.027,-0.0388,-0.0428,-0.0428,-0.0435,-0.042,-0.0431,-0.0427,-0.0466,-0.0466,-0.0466,-0.0466,0,0.0094,0.0111,0.0141,0.0185,0.0238,0.0297,0.0317,0.0361,0.0391,0.0411,0.041,0.0306,0.0239,0.0043,-0.0089,-0.022,-0.026,-0.0301,-0.0309,-0.031,-0.0255,-0.0213,-0.0208,0,0,0,0,0,0.0094,0.0118,0.0166,0.0218,0.0277,0.0308,0.037,0.0389,0.0416,0.044,0.0432,0.0346,0.0165,0.0079,-0.005,-0.0125,-0.0307,-0.0283,-0.0364,-0.0471,-0.047,-0.0432,0,0,0,0,0,0,0.0093,0.0132,0.0163,0.0243,0.0285,0.0353,0.0392,0.0413,0.0428,0.0439,0.0347,0.0312,0.0127,0.0242,-0.0052,-0.0095,-0.0164,-0.037,-0.0373,-0.0472,-0.0471,-0.047,-0.0431,0,0,0,0,0]}]]